GW4661 Weather Reports


time (UTC)temp
C
wind
direction
speed
KPH
gust
KPH
rain 1hr
cm
rain 24hr
cm
rain mn
cm
humidity
%
barometer
mb
20260506212020 21 193 3.2 17.7 0.00 0.10 0.10 73 1008.6
20260506211532 21 0 1.6 17.7 0.00 0.10 0.10 73 1008.6
20260506211010 21 264 4.8 17.7 0.00 0.10 0.10 72 1008.5
20260506210509 21 296 1.6 11.3 0.00 0.10 0.10 73 1008.5
20260506210032 21 0 4.8 12.9 0.00 0.10 0.10 73 1008.4
20260506205511 21 219 0.0 12.9 0.00 0.10 0.10 74 1008.3
20260506205010 21 164 3.2 17.7 0.00 0.10 0.10 73 1008.3
20260506204713 21 242 3.2 17.7 0.00 0.10 0.10 73 1008.2
20260506202128 21 312 4.8 14.5 0.00 0.10 0.10 73 1008.3
20260506200030 20 148 3.2 19.3 0.00 0.10 0.10 74 1008.6
20260506195510 20 177 3.2 19.3 0.00 0.10 0.10 76 1008.7
20260506195009 20 117 1.6 11.3 0.00 0.10 0.10 76 1008.9
20260506194528 20 287 3.2 11.3 0.00 0.10 0.10 78 1008.9
20260506194008 19 243 3.2 14.5 0.00 0.10 0.10 78 1009.0
20260506193512 19 221 4.8 14.5 0.00 0.10 0.10 78 1009.2
20260506193200 19 269 1.6 14.5 0.00 0.10 0.10 79 1009.3
20260506192511 19 290 4.8 14.5 0.00 0.10 0.10 79 1009.3
20260506192011 19 47 3.2 11.3 0.00 0.10 0.10 80 1009.3
20260506191610 19 240 3.2 11.3 0.00 0.10 0.10 81 1009.3
20260506191009 19 221 3.2 16.1 0.00 0.10 0.10 81 1009.2
20260506190510 19 0 3.2 16.1 0.00 0.10 0.10 82 1009.1
20260506190030 18 190 4.8 16.1 0.03 0.10 0.10 83 1009.2
20260506185511 18 230 1.6 12.9 0.03 0.10 0.10 85 1009.4
20260506185013 18 171 3.2 11.3 0.05 0.10 0.10 85 1009.4
20260506184529 18 0 1.6 8.0 0.05 0.10 0.10 86 1009.5
20260506184017 17 182 3.2 14.5 0.08 0.10 0.10 86 1009.6
20260506183510 17 186 1.6 14.5 0.10 0.10 0.10 88 1009.7
20260506183030 17 194 4.8 14.5 0.10 0.10 0.10 87 1009.6
20260506182512 17 229 1.6 12.9 0.10 0.10 0.10 88 1009.7
20260506182011 17 153 4.8 16.1 0.10 0.10 0.10 89 1009.8
20260506181528 17 189 1.6 16.1 0.10 0.10 0.10 90 1009.8
20260506181010 17 217 3.2 16.1 0.10 0.10 0.10 89 1009.9
20260506180605 17 141 3.2 9.7 0.10 0.10 0.10 89 1009.8
20260506180030 17 306 3.2 14.5 0.08 0.08 0.08 87 1010.1
20260506175659 17 205 3.2 17.7 0.08 0.08 0.08 85 1010.0
20260506175017 17 204 1.6 19.3 0.05 0.05 0.05 84 1009.9
20260506174529 18 194 6.4 19.3 0.05 0.05 0.05 81 1010.1
20260506174008 19 128 1.6 14.5 0.00 0.00 0.00 77 1010.2
20260506173512 20 229 3.2 16.1 0.00 0.00 0.00 72 1010.1
20260506173041 20 173 4.8 16.1 0.00 0.00 0.00 69 1010.2
20260506172509 20 82 1.6 19.3 0.00 0.00 0.00 68 1010.2
20260506172135 21 186 3.2 19.3 0.00 0.00 0.00 67 1010.0
20260506171807 21 208 4.8 16.1 0.00 0.00 0.00 67 1010.1
20260506171009 21 209 3.2 19.3 0.00 0.00 0.00 67 1010.1
20260506170628 21 189 6.4 19.3 0.00 0.00 0.00 65 1010.1
20260506170028 22 265 4.8 16.1 0.00 0.00 0.00 62 1010.0
20260506165514 22 246 3.2 19.3 0.00 0.00 0.00 62 1010.1
20260506165011 22 302 4.8 19.3 0.00 0.00 0.00 61 1010.1
20260506164530 22 256 8.0 19.3 0.00 0.00 0.00 61 1010.2
20260506164011 22 124 4.8 22.5 0.00 0.00 0.00 61 1010.4
20260506163511 22 190 3.2 22.5 0.00 0.00 0.00 62 1010.6
20260506163032 22 288 3.2 14.5 0.00 0.00 0.00 62 1010.7
20260506162510 22 140 3.2 12.9 0.00 0.00 0.00 62 1010.8
20260506162011 22 344 3.2 16.1 0.00 0.00 0.00 61 1010.8
20260506161534 22 256 4.8 19.3 0.00 0.00 0.00 62 1011.1
20260506161451 22 227 8.0 19.3 0.00 0.00 0.00 61 1011.3
20260506160635 22 219 6.4 19.3 0.00 0.00 0.00 61 1011.1
20260506160305 22 0 1.6 14.5 0.00 0.00 0.00 62 1011.1
20260506155648 21 233 3.2 19.3 0.00 0.00 0.00 62 1011.1
20260506155044 21 158 3.2 19.3 0.00 0.00 0.00 62 1011.2
20260506154532 21 200 6.4 19.3 0.00 0.00 0.00 61 1011.1
20260506154011 21 201 4.8 14.5 0.00 0.00 0.00 61 1011.1
20260506153634 21 146 4.8 14.5 0.00 0.00 0.00 61 1011.3
20260506153431 21 263 4.8 14.5 0.00 0.00 0.00 61 1011.1
20260506152510 22 290 4.8 16.1 0.00 0.00 0.00 60 1011.3
20260506152017 22 9 1.6 17.7 0.00 0.00 0.00 60 1011.3
20260506151617 22 114 8.0 17.7 0.00 0.00 0.00 59 1011.2
20260506151011 22 248 3.2 16.1 0.00 0.00 0.00 60 1011.3
20260506150643 21 151 4.8 17.7 0.00 0.00 0.00 61 1011.1
20260506150132 21 254 6.4 17.7 0.00 0.00 0.00 60 1011.2
20260506145600 22 205 3.2 14.5 0.00 0.00 0.00 60 1011.3
20260506145519 22 205 3.2 14.5 0.00 0.00 0.00 60 1011.3
20260506145128 22 284 6.4 25.7 0.00 0.00 0.00 60 1011.2
20260506145017 22 284 6.4 25.7 0.00 0.00 0.00 60 1011.2
20260506144534 21 162 6.4 25.7 0.00 0.00 0.00 60 1011.3
20260506144015 21 210 3.2 17.7 0.00 0.00 0.00 61 1011.3
20260506143510 21 266 6.4 17.7 0.00 0.00 0.00 61 1011.2
20260506143031 21 265 4.8 17.7 0.00 0.00 0.00 61 1011.4
20260506142636 21 297 8.0 17.7 0.00 0.00 0.00 61 1011.5
20260506142218 21 223 6.4 20.9 0.00 0.00 0.00 61 1011.6
20260506141730 21 285 8.0 20.9 0.00 0.00 0.00 60 1011.8
20260506141012 21 0 3.2 19.3 0.00 0.00 0.00 61 1011.5
20260506140516 21 261 6.4 19.3 0.00 0.00 0.00 62 1011.6
20260506140148 21 228 4.8 16.1 0.00 0.00 0.00 61 1011.4
20260506135549 21 288 3.2 16.1 0.00 0.00 0.00 63 1011.5
20260506135023 21 192 4.8 19.3 0.00 0.00 0.00 62 1011.6
20260506134634 20 182 6.4 19.3 0.00 0.00 0.00 64 1011.6
20260506134014 20 189 4.8 14.5 0.00 0.00 0.00 63 1011.7
20260506133716 20 233 3.2 14.5 0.00 0.00 0.00 63 1011.7
20260506132058 21 329 4.8 11.3 0.00 0.00 0.00 63 1011.9
20260506132010 21 329 4.8 11.3 0.00 0.00 0.00 63 1011.9
20260506131528 21 157 3.2 11.3 0.00 0.00 0.00 63 1012.0
20260506131008 21 182 3.2 17.7 0.00 0.00 0.00 63 1012.0
20260506130509 21 155 4.8 17.7 0.00 0.00 0.00 63 1012.0
20260506130029 21 197 3.2 14.5 0.00 0.00 0.00 63 1012.0
20260506125508 21 40 4.8 14.5 0.00 0.00 0.00 64 1012.0
20260506125008 21 118 3.2 14.5 0.00 0.00 0.00 65 1011.9
20260506124529 20 213 4.8 14.5 0.00 0.00 0.00 65 1012.1
20260506124010 20 224 3.2 11.3 0.00 0.00 0.00 65 1012.1
20260506123512 20 169 3.2 14.5 0.00 0.00 0.00 66 1011.9
20260506123029 20 0 3.2 16.1 0.00 0.00 0.00 66 1012.0
20260506122508 20 313 3.2 16.1 0.00 0.00 0.00 67 1011.9
20260506122018 20 141 1.6 17.7 0.00 0.00 0.00 68 1011.9
20260506121529 19 108 4.8 17.7 0.00 0.00 0.00 69 1011.9
20260506121010 18 272 4.8 17.7 0.00 0.00 0.00 70 1012.0
20260506120512 18 182 1.6 14.5 0.00 0.00 0.00 70 1012.0
20260506120031 18 161 3.2 14.5 0.00 0.00 0.00 71 1011.9
20260506115514 18 166 1.6 8.0 0.00 0.00 0.00 72 1011.9
20260506115023 18 208 3.2 14.5 0.00 0.00 0.00 73 1011.8
20260506114527 18 171 1.6 16.1 0.00 0.00 0.00 75 1011.8
20260506114010 17 121 4.8 16.1 0.00 0.00 0.00 75 1011.8
20260506113510 17 158 1.6 6.4 0.00 0.00 0.00 77 1011.9
20260506113048 17 172 1.6 6.4 0.00 0.00 0.00 78 1011.8
20260506112512 17 0 1.6 8.0 0.00 0.00 0.00 78 1011.9
20260506112010 16 153 1.6 8.0 0.00 0.00 0.00 79 1011.8
20260506111527 16 140 1.6 8.0 0.00 0.00 0.00 80 1012.0
20260506111011 16 203 3.2 8.0 0.00 0.00 0.00 81 1012.0
20260506110508 16 157 1.6 9.7 0.00 0.00 0.00 81 1012.0
20260506110030 16 157 0.0 9.7 0.00 0.00 0.00 81 1011.9
20260506105509 16 186 3.2 9.7 0.00 0.00 0.00 82 1012.0
20260506105026 16 192 1.6 6.4 0.00 0.00 0.00 82 1011.9
20260506104529 15 229 0.0 8.0 0.00 0.00 0.00 83 1012.0
20260506104012 15 158 0.0 8.0 0.00 0.00 0.00 83 1012.0
20260506103510 15 201 1.6 6.4 0.00 0.00 0.00 83 1012.0
20260506103030 15 155 1.6 6.4 0.00 0.00 0.00 83 1012.0
20260506102510 15 247 1.6 9.7 0.00 0.00 0.00 83 1011.9
20260506102012 15 241 1.6 9.7 0.00 0.00 0.00 83 1011.8
20260506101528 15 136 1.6 9.7 0.00 0.00 0.00 84 1011.8
20260506101008 15 209 1.6 8.0 0.00 0.00 0.00 84 1011.8
20260506100511 15 0 0.0 8.0 0.00 0.00 0.00 84 1011.8
20260506100027 15 0 1.6 8.0 0.00 0.00 0.00 85 1011.9
20260506095510 15 153 0.0 8.0 0.00 0.00 0.00 85 1011.8
20260506095009 15 158 1.6 8.0 0.00 0.00 0.00 85 1011.7
20260506094529 15 181 1.6 6.4 0.00 0.00 0.00 85 1011.7
20260506094009 15 0 0.0 8.0 0.00 0.00 0.00 85 1011.7
20260506093510 15 163 1.6 8.0 0.00 0.00 0.00 85 1011.6
20260506093037 15 168 1.6 4.8 0.00 0.00 0.00 86 1011.8
20260506092509 15 113 1.6 6.4 0.00 0.00 0.00 86 1011.8
20260506092011 15 154 1.6 6.4 0.00 0.00 0.00 86 1011.9
20260506091528 15 0 0.0 3.2 0.00 0.00 0.00 85 1011.9
20260506091007 15 170 0.0 3.2 0.00 0.00 0.00 85 1011.9
20260506090510 15 0 0.0 6.4 0.00 0.00 0.00 85 1011.9
20260506090028 15 182 0.0 6.4 0.00 0.00 0.00 85 1012.0
20260506085507 15 218 0.0 6.4 0.00 0.00 0.00 85 1012.1
20260506085009 15 225 1.6 6.4 0.00 0.00 0.00 85 1012.1
20260506084534 15 257 0.0 3.2 0.00 0.00 0.00 86 1012.1
20260506084011 15 0 0.0 6.4 0.00 0.00 0.00 86 1012.1
20260506083511 15 135 0.0 11.3 0.00 0.00 0.00 85 1012.3
20260506083030 15 175 1.6 11.3 0.00 0.00 0.00 86 1012.2
20260506082510 15 212 1.6 11.3 0.00 0.00 0.00 86 1012.1
20260506082009 15 0 1.6 8.0 0.00 0.00 0.00 86 1012.1
20260506081528 15 0 0.0 6.4 0.00 0.00 0.00 86 1012.2
20260506081009 15 199 1.6 8.0 0.00 0.00 0.00 86 1012.1
20260506080511 15 136 1.6 8.0 0.00 0.00 0.00 86 1012.0
20260506073511 15 154 0.0 3.2 0.00 0.00 0.00 86 1012.2
20260506073028 15 0 0.0 3.2 0.00 0.00 0.00 85 1012.2
20260506072512 15 188 0.0 4.8 0.00 0.00 0.00 85 1012.3
20260506072014 15 0 0.0 4.8 0.00 0.00 0.00 84 1012.3
20260506071529 15 0 0.0 4.8 0.00 0.00 0.00 84 1012.3
20260506071010 15 165 0.0 4.8 0.00 0.00 0.00 84 1012.4
20260506070507 16 131 0.0 4.8 0.00 0.00 0.00 83 1012.4
20260506062510 16 147 1.6 6.4 0.00 0.00 0.00 81 1012.4
20260506062009 16 156 0.0 4.8 0.00 0.00 0.00 80 1012.3
20260506061528 16 0 1.6 8.0 0.00 0.00 0.00 80 1012.3
20260506061008 16 0 1.6 8.0 0.00 0.00 0.00 80 1012.2
20260506060507 16 0 0.0 6.4 0.00 0.00 0.00 80 1012.3
20260506051010 17 0 1.6 8.0 0.00 0.00 0.00 79 1012.7
20260506050507 16 0 0.0 6.4 0.00 0.00 0.00 80 1012.6
20260506045011 17 159 1.6 9.7 0.00 0.00 0.00 79 1012.8
20260506044538 17 260 1.6 9.7 0.00 0.00 0.00 79 1012.8
20260506044008 17 144 1.6 8.0 0.00 0.00 0.00 78 1012.8
20260506043510 17 314 1.6 8.0 0.00 0.00 0.00 78 1012.8
20260506043030 17 153 0.0 8.0 0.00 0.00 0.00 78 1012.8
20260506042510 17 170 1.6 8.0 0.00 0.00 0.00 78 1012.8
20260506042011 17 0 0.0 6.4 0.00 0.00 0.00 78 1012.7
20260506041541 17 149 0.0 6.4 0.00 0.00 0.00 78 1012.8
20260506041012 17 135 0.0 11.3 0.00 0.00 0.00 77 1012.9
20260506040507 17 181 1.6 11.3 0.00 0.00 0.00 77 1012.8
20260506040033 17 143 1.6 8.0 0.00 0.00 0.00 77 1012.8
20260506035508 17 0 1.6 8.0 0.00 0.00 0.00 76 1012.8
20260506035010 17 219 1.6 8.0 0.00 0.00 0.00 75 1012.8
20260506034532 17 0 0.0 6.4 0.00 0.00 0.00 75 1012.8
20260506034013 18 0 0.0 6.4 0.00 0.00 0.00 74 1012.9
20260506033510 18 145 1.6 8.0 0.00 0.00 0.00 74 1012.9
20260506033028 18 134 1.6 8.0 0.00 0.00 0.00 74 1012.9
20260506032507 18 0 1.6 8.0 0.00 0.00 0.00 74 1012.9
20260506032008 18 149 0.0 8.0 0.00 0.00 0.00 74 1012.9
20260506031529 18 134 1.6 11.3 0.00 0.00 0.00 74 1012.8
20260506031009 18 265 1.6 11.3 0.00 0.00 0.00 74 1012.8
20260506030508 18 153 0.0 8.0 0.00 0.00 0.00 73 1012.9
20260506030028 18 0 1.6 8.0 0.00 0.00 0.00 74 1012.9
20260506025510 18 218 1.6 8.0 0.00 0.00 0.00 73 1012.9
20260506025008 18 163 0.0 6.4 0.00 0.00 0.00 73 1012.8
20260506024533 18 230 1.6 6.4 0.00 0.00 0.00 73 1012.9
20260506024011 18 190 1.6 8.0 0.00 0.00 0.00 73 1012.9
20260506023508 18 126 0.0 11.3 0.00 0.00 0.00 72 1012.9
20260506023030 18 178 1.6 11.3 0.00 0.00 0.00 72 1012.9
20260506022510 18 144 3.2 11.3 0.00 0.00 0.00 73 1012.9
20260506022008 18 269 1.6 8.0 0.00 0.00 0.00 72 1012.8
20260506021528 18 217 1.6 8.0 0.00 0.00 0.00 72 1012.9
20260506021016 18 145 1.6 9.7 0.00 0.00 0.00 72 1012.9
20260506020512 18 180 0.0 9.7 0.00 0.00 0.00 72 1012.9
20260506020030 18 186 1.6 9.7 0.00 0.00 0.00 72 1012.9
20260506015508 18 184 0.0 11.3 0.00 0.00 0.00 72 1012.8
20260506015010 18 114 3.2 12.9 0.00 0.00 0.00 72 1012.9
20260506014528 18 128 1.6 12.9 0.00 0.00 0.00 73 1012.9
20260506014010 18 160 1.6 12.9 0.00 0.00 0.00 73 1012.8
20260506013510 18 0 0.0 9.7 0.00 0.00 0.00 73 1012.7
20260506013032 18 0 1.6 8.0 0.00 0.00 0.00 72 1012.7
20260506012516 18 169 1.6 8.0 0.00 0.00 0.00 72 1012.7
20260506012015 18 252 1.6 11.3 0.00 0.00 0.00 71 1012.7
20260506011553 18 202 1.6 11.3 0.00 0.00 0.00 71 1012.7
20260506011015 18 296 1.6 12.9 0.00 0.00 0.00 71 1012.7
20260506010510 18 192 1.6 12.9 0.00 0.00 0.00 70 1012.5
20260506010030 18 156 1.6 9.7 0.00 0.00 0.00 69 1012.5
20260506005513 18 146 1.6 9.7 0.00 0.00 0.00 69 1012.4
20260506005009 18 219 1.6 14.5 0.00 0.00 0.00 68 1012.4
20260506004540 19 141 3.2 14.5 0.00 0.00 0.00 67 1012.4
20260506004012 19 167 3.2 14.5 0.00 0.00 0.00 66 1012.3
20260506003511 19 244 3.2 12.9 0.00 0.00 0.00 66 1012.3
20260506003031 19 155 3.2 12.9 0.00 0.00 0.00 65 1012.2
20260506002507 19 178 3.2 9.7 0.00 0.00 0.00 65 1012.2
20260506002008 19 95 1.6 8.0 0.00 0.00 0.00 65 1012.3
20260506001531 19 145 1.6 9.7 0.00 0.00 0.00 65 1012.3
20260506001008 19 0 3.2 16.1 0.00 0.00 0.00 64 1012.1
20260506000512 19 174 6.4 16.1 0.00 0.00 0.00 64 1012.2
20260506000028 20 134 1.6 12.9 0.00 0.00 0.00 63 1012.1
20260505235511 20 152 1.6 12.9 0.00 0.00 0.00 63 1012.0
20260505235010 20 138 1.6 6.4 0.00 0.00 0.00 61 1012.1
20260505234530 20 179 1.6 8.0 0.00 0.00 0.00 61 1012.0
20260505234120 20 0 1.6 11.3 0.00 0.00 0.00 60 1011.9
20260505233507 21 167 1.6 12.9 0.00 0.00 0.00 59 1011.9
20260505233033 21 223 0.0 12.9 0.00 0.00 0.00 59 1011.8
20260505232515 21 161 1.6 12.9 0.00 0.00 0.00 58 1011.8
20260505232010 21 342 1.6 12.9 0.00 0.00 0.00 58 1011.8
20260505231537 21 193 3.2 11.3 0.00 0.00 0.00 57 1011.8
20260505231011 21 150 3.2 11.3 0.00 0.00 0.00 57 1011.7
20260505230509 22 212 4.8 9.7 0.00 0.00 0.00 56 1011.7
20260505230028 22 136 3.2 8.0 0.00 0.00 0.00 56 1011.6
20260505225512 22 280 3.2 9.7 0.00 0.00 0.00 57 1011.5
20260505225011 22 0 0.0 9.7 0.00 0.00 0.00 56 1011.6
20260505224528 22 282 4.8 12.9 0.00 0.00 0.00 56 1011.6
20260505224010 22 212 4.8 12.9 0.00 0.00 0.00 54 1011.4
20260505223509 22 140 4.8 12.9 0.00 0.00 0.00 54 1011.3
20260505223033 23 0 4.8 12.9 0.00 0.00 0.00 53 1011.3
20260505222511 23 154 3.2 12.9 0.00 0.00 0.00 52 1011.2
20260505222056 23 160 4.8 20.9 0.00 0.00 0.00 52 1011.2
20260505221010 23 169 1.6 14.5 0.00 0.00 0.00 52 1011.4
20260505220507 23 242 4.8 14.5 0.00 0.00 0.00 52 1011.3
20260505220044 23 146 3.2 14.5 0.00 0.00 0.00 51 1011.2
20260505215512 24 123 6.4 12.9 0.00 0.00 0.00 50 1011.2
20260505215009 24 0 1.6 16.1 0.00 0.00 0.00 50 1011.1
20260505214532 24 167 4.8 16.1 0.00 0.00 0.00 48 1011.0
20260505214012 25 141 3.2 14.5 0.00 0.00 0.00 48 1010.9
20260505213508 25 160 4.8 16.1 0.00 0.00 0.00 46 1010.8
20260505213032 25 215 4.8 16.1 0.00 0.00 0.00 49 1010.7
20260505212509 25 190 3.2 16.1 0.00 0.00 0.00 47 1010.5